Regional Weather Roundup
Issued by NWS Bismarck, ND

Home | Current Version | Previous Version | Text Only | Print | Product List | Glossary On
Versions: 1 2 3 4 5 6 7 8 9 10 11 12 13 14 15 16 17 18 19 20 21 22 23 24 25 26 27 28 29 30 31 32 33 34 35 36 37 38 39 40 41 42 43 44 45 46 47 48 49 50
000
ASUS43 KBIS 311702
RWRBIS

NWR BROADCAST TEXT
NATIONAL WEATHER SERVICE BISMARCK ND
1200 PM CDT FRI JUL 31 2015

NOTE: "FAIR" INDICATES FEW OR NO CLOUDS BELOW 12,000 FEET WITH NO
SIGNIFICANT WEATHER AND/OR OBSTRUCTIONS TO VISIBILITY.


CITY           SKY/WX    TMP DP  RH WIND       PRES   REMARKS
WILLISTON      SUNNY     81  51  35 VRB7      30.16F
MINOT          SUNNY     78  49  35 N6        30.12S
MINOT AFB      SUNNY     81  51  35 NW10      30.11F
BISMARCK       SUNNY     82  54  37 W9        30.13F
DICKINSON      SUNNY     84  44  24 W12       30.17S
GARRISON         N/A     78  56  46 NW10      30.13S
HETTINGER ARPT SUNNY     84  41  21 NW8       30.21S
JAMESTOWN      SUNNY     77  50  38 NW5G17    30.12S
HAZEN          FAIR      82  48  30 NW13G20   30.14S
OAKES            N/A     79  55  44 N3        30.13F
STANLEY        FAIR      75  54  46 N13       30.16F
$$

CITY           SKY/WX    TMP DP  RH WIND       PRES   REMARKS
GRAND FORKS    MOSUNNY   79  51  37 NW17G23   30.05S
GRAND FORKS AF SUNNY     77  53  41 NW14G20   30.07S
DEVILS LAKE    SUNNY     75  52  43 W13       30.09F
FARGO          SUNNY     79  52  38 NW18      30.08F
CAVALIER       FAIR      75  54  46 NW16G23   30.04S
GRAFTON        FAIR      77  52  41 NW18      30.05S
GWINNER        FAIR      79  52  38 NW10      30.13S
LANGDON        FAIR      75  54  46 NW13      30.09S
$$

CITY           SKY/WX    TMP DP  RH WIND       PRES   REMARKS
ABERDEEN       SUNNY     79  54  41 S6        30.14F
MOBRIDGE       SUNNY     82  55  39 S8        30.14F
BUFFALO          N/A     85  41  21 MISG      30.16S
RAPID CITY     SUNNY     80  55  42 N7        30.24S
GLASGOW        SUNNY     82  43  25 S6        30.13F
SIDNEY         SUNNY    N/A N/A N/A W9        30.14F
WOLF POINT     SUNNY     84  45  25 S5        30.14F
GLENDIVE       SUNNY     82  52  34 SE6       30.18F
MILES CITY     SUNNY     86  49  27 SE9       30.15F
BAKER          SUNNY     86  41  20 SW6       30.21F
$$

CITY           SKY/WX    TMP DP  RH WIND       PRES   REMARKS
BILLINGS       MOSUNNY   77  45  32 SW8       30.22F
GREAT FALLS    MOSUNNY   80  39  23 SW7       30.20S
$$




USA.gov is the U.S. government's official web portal to all federal, state and local government web resources and services.